Location: PACMO
(41.3967°N, 90.3760°W)
Time: 17:16:07
(UTC-05:00)

Amateur Radio Satellites - All Passes

Search period start: 16 October 2017 16:46
Search period end: 17 October 2017 16:46
Location: PACMO, 41.3967°N, 90.3760°W

Satellite Date Start Highest point End Downlink Frequencies (MHz)
Time Altitude Azimuth
DOVE 4 16 Oct 17:01:10 17:05:06 45° 72° (ENE) 17:09:11 437.250
KKS-1 16 Oct 17:04:38 17:06:55 14° 91° (E) 17:09:14 437.445
XW-2B 16 Oct 17:08:49 17:10:15 12° 64° (ENE) 17:11:41 145.730 - 145.750
PCSat 16 Oct 17:13:24 17:16:56 17° 42° (NE) 17:20:27 145.827
AO-7 16 Oct 17:14:47 17:21:01 23° 267° (W) 17:27:17 .
XW-2C 16 Oct 17:30:06 17:33:01 21° 69° (ENE) 17:35:56 145.795 - 145.815
CUTE-I 16 Oct 17:41:10 17:45:50 32° 67° (ENE) 17:50:32 437.470
STARS 16 Oct 17:49:29 17:52:23 17° 93° (E) 17:55:16 437.465
HO-68 16 Oct 17:54:46 18:00:22 26° 58° (ENE) 18:06:00 435.675
nSIGHT-1 16 Oct 17:55:52 17:59:02 55° 32° (NNE) 18:02:12 .
ITUPSAT 1 16 Oct 18:07:15 18:09:19 13° 300° (WNW) 18:11:22 437.325
LilacSat-2 16 Oct 18:13:44 18:17:34 79° 76° (ENE) 18:21:25 437.200
SO-50 16 Oct 18:17:05 18:20:35 22° 248° (WSW) 18:24:07 436.795
CUTE 1.7 + AOD 2 16 Oct 18:17:12 18:19:59 17° 66° (ENE) 18:22:46 437.475
CUBESAT XI-V 16 Oct 18:17:26 18:21:23 29° 291° (WNW) 18:25:21 437.345
ISS 16 Oct 18:17:36 18:20:54 78° 36° (NE) 18:24:10 437.550
XW-2F 16 Oct 18:18:01 18:21:48 77° 76° (ENE) 18:25:35 145.980 - 146.000
KAITUO 1B 16 Oct 18:23:54 18:27:38 70° 76° (ENE) 18:31:22 145.475/437.950
XW-2D 16 Oct 18:26:50 18:30:38 74° 258° (WSW) 18:34:27 145.860 - 145.880
CUBEBUG 2 16 Oct 18:32:06 18:35:02 17° 64° (ENE) 18:38:02 437.445
SEEDS 16 Oct 18:33:11 18:35:43 16° 65° (ENE) 18:38:14 437.485
KKS-1 16 Oct 18:39:24 18:43:48 56° 287° (WNW) 18:48:11 437.445
XW-2B 16 Oct 18:40:14 18:43:58 51° 260° (W) 18:47:41 145.730 - 145.750
DOVE 4 16 Oct 18:40:54 18:43:06 14° 269° (W) 18:45:22 437.250
NUDT-PHONESAT 16 Oct 18:45:30 18:49:12 63° 259° (W) 18:52:55 437.300
PCSat 16 Oct 18:55:37 19:01:04 87° 246° (WSW) 19:06:29 145.827
XW-2C 16 Oct 19:03:48 19:07:03 26° 264° (W) 19:10:18 145.795 - 145.815
ZACube-1 16 Oct 19:08:02 19:09:55 12° 62° (ENE) 19:11:50 437.345
AAUSAT CUBESAT 2 16 Oct 19:10:09 19:12:51 17° 66° (ENE) 19:15:35 437.432
UWE-3 16 Oct 19:18:13 19:22:08 28° 68° (ENE) 19:26:07 435.000/436.395/437.385
CUTE-I 16 Oct 19:21:05 19:25:49 33° 264° (W) 19:30:36 437.470
STARS 16 Oct 19:24:41 19:28:55 45° 289° (WNW) 19:33:08 437.465
nSIGHT-1 16 Oct 19:32:56 19:35:02 16° 228° (SW) 19:37:07 .
HO-68 16 Oct 19:40:24 19:47:31 66° 257° (WSW) 19:54:41 435.675
Oscar 11 16 Oct 19:51:08 19:54:18 20° 66° (ENE) 19:57:28 .
CUTE 1.7 + AOD 2 16 Oct 19:51:28 19:55:29 42° 262° (W) 19:59:30 437.475
XW-2A 16 Oct 19:53:04 19:56:29 77° 77° (ENE) 19:59:55 145.665 - 145.685
ISS 16 Oct 19:55:39 19:56:56 12° 230° (SW) 19:58:14 437.550
CUBEBUG 2 16 Oct 20:06:40 20:11:10 54° 261° (W) 20:15:49 437.445
SEEDS 16 Oct 20:07:00 20:11:01 45° 261° (W) 20:15:03 437.485
FO-29 16 Oct 20:14:37 20:17:08 12° 88° (E) 20:19:43 435.910
AO-73 16 Oct 20:21:40 20:26:09 62° 75° (ENE) 20:30:42 145.935
STRAND 1 16 Oct 20:38:26 20:43:39 86° 106° (ESE) 20:48:47 437.568
ZACube-1 16 Oct 20:41:00 20:45:34 73° 259° (W) 20:50:10 437.345
PCSat 16 Oct 20:42:08 20:43:36 11° 258° (WSW) 20:45:03 145.827
AAUSAT CUBESAT 2 16 Oct 20:44:10 20:48:00 38° 262° (W) 20:51:52 437.432
UWE-3 16 Oct 20:54:27 20:58:28 30° 265° (W) 21:02:34 435.000/436.395/437.385
YUBILEINY 16 Oct 20:56:56 21:05:31 54° 76° (ENE) 21:14:05 435.215
O/OREOS (USA 219) 16 Oct 20:58:32 21:01:55 21° 101° (E) 21:05:20 437.305
DELFI C3 16 Oct 21:16:39 21:20:10 34° 71° (ENE) 21:23:44 145.870
Oscar 11 16 Oct 21:26:08 21:30:10 37° 263° (W) 21:34:13 .
Max Valier Satellite 16 Oct 21:29:26 21:32:50 33° 72° (ENE) 21:36:14 145.860
EO-88 16 Oct 21:29:48 21:32:48 24° 70° (ENE) 21:35:47 145.990 - 145.960
UNISAT 6 16 Oct 21:36:49 21:38:11 11° 88° (E) 21:39:33 437.425
BEESAT 3 16 Oct 21:49:01 21:52:42 35° 51° (NE) 21:56:18 437.485
TIGRISAT 16 Oct 21:51:40 21:54:22 15° 90° (E) 21:57:02 435.000
FO-29 16 Oct 21:56:11 22:02:55 74° 103° (ESE) 22:10:24 435.910
AO-85 16 Oct 21:59:01 22:01:53 16° 42° (NE) 22:04:51 145.980
AO-73 16 Oct 22:00:40 22:02:46 13° 270° (W) 22:04:52 145.935
STRAND 1 16 Oct 22:19:50 22:22:04 13° 301° (WNW) 22:24:18 437.568
PRISM 16 Oct 22:22:46 22:24:50 13° 92° (E) 22:26:54 437.425
LO-87 16 Oct 22:33:23 22:35:54 18° 68° (ENE) 22:38:26 145.935 - 145.965
O/OREOS (USA 219) 16 Oct 22:36:48 22:41:03 38° 298° (WNW) 22:45:21 437.305
ESTCUBE 1 16 Oct 22:49:42 22:53:19 25° 67° (ENE) 22:56:58 437.505/2401.250
DELFI C3 16 Oct 22:52:26 22:55:01 17° 267° (W) 22:57:37 145.870
YUBILEINY 16 Oct 22:54:21 23:01:54 34° 276° (W) 23:09:27 435.215
BEESAT 2 16 Oct 22:59:29 23:03:29 59° 54° (NE) 23:07:26 435.950
EO-88 16 Oct 23:03:35 23:06:23 21° 265° (W) 23:09:12 145.990 - 145.960
Max Valier Satellite 16 Oct 23:04:26 23:06:44 16° 267° (W) 23:09:04 145.860
UNISAT 6 16 Oct 23:10:45 23:15:24 72° 285° (WNW) 23:19:56 437.425
TIGRISAT 16 Oct 23:26:50 23:31:23 53° 287° (WNW) 23:35:48 435.000
BEESAT 3 16 Oct 23:27:04 23:30:00 20° 248° (WSW) 23:32:54 437.485
AO-85 16 Oct 23:38:11 23:42:45 78° 240° (WSW) 23:47:40 145.980
FO-29 16 Oct 23:42:30 23:47:26 22° 298° (WNW) 23:52:43 435.910
QB50P2 16 Oct 23:47:33 23:49:32 13° 91° (E) 23:51:31 145.880/145.840
AIST 2D 16 Oct 23:51:58 23:55:09 33° 97° (E) 23:58:18 435.315
NANOSAT C BR1 16 Oct 23:55:14 23:57:04 12° 91° (E) 23:58:52 145.865
PRISM 16 Oct 23:56:23 00:00:21 48° 287° (WNW) 00:04:19 437.425
LO-87 17 Oct 00:06:02 00:09:06 27° 264° (W) 00:12:14 145.935 - 145.965
DUCHIFAT 1 17 Oct 00:07:45 00:10:15 15° 92° (E) 00:12:44 145.980
RS-15 17 Oct 00:09:41 00:19:11 28° 101° (ESE) 00:28:41 29.354- 29.394
SPROUT 17 Oct 00:19:27 00:23:37 53° 73° (ENE) 00:27:48 437.525
ESTCUBE 1 17 Oct 00:25:57 00:29:58 32° 263° (W) 00:34:01 437.505/2401.250
VELOX 1 17 Oct 00:33:00 00:37:15 53° 73° (ENE) 00:41:32 145.980
BEESAT 2 17 Oct 00:39:01 00:40:42 12° 251° (WSW) 00:42:21 435.950
UKube-1 17 Oct 00:51:07 00:53:20 14° 62° (ENE) 00:55:33 .
EO-79 17 Oct 00:57:50 01:02:08 73° 103° (ESE) 01:06:21 145.935-145.965
POLYITAN 1 17 Oct 01:01:24 01:05:41 80° 102° (ESE) 01:09:56 437.675
QB50P2 17 Oct 01:21:28 01:25:39 54° 286° (WNW) 01:29:47 145.880/145.840
AIST 2D 17 Oct 01:26:10 01:28:01 14° 293° (WNW) 01:29:51 435.315
NANOSAT C BR1 17 Oct 01:28:55 01:33:06 55° 286° (WNW) 01:37:14 145.865
DUCHIFAT 1 17 Oct 01:42:04 01:46:08 45° 288° (WNW) 01:50:09 145.980
50 SAT 17 Oct 01:46:11 01:49:24 68° 258° (WSW) 01:52:41 437.505
DX 1 17 Oct 01:52:03 01:56:22 83° 255° (WSW) 02:00:43 434.975-435.025
M-CUBED/EXP-1 PRIME 17 Oct 01:55:20 01:57:44 17° 101° (E) 02:00:13 437.505
SPROUT 17 Oct 01:57:46 01:59:49 13° 269° (W) 02:01:52 437.525
ITUPSAT 1 17 Oct 02:00:12 02:01:32 11° 59° (ENE) 02:02:52 437.325
BUGSAT 1 17 Oct 02:05:34 02:09:49 83° 100° (E) 02:14:02 437.445
MOZHAYETS 4 17 Oct 02:07:40 02:09:55 14° 62° (ENE) 02:12:12
VELOX 1 17 Oct 02:11:45 02:14:00 14° 269° (W) 02:16:16 145.980
Gurwin Techsat 1B 17 Oct 02:12:36 02:17:18 31° 96° (E) 02:21:58 435.225
Oscar 19 17 Oct 02:12:48 02:17:43 44° 99° (E) 02:22:35 437.125/150
BEESAT 17 Oct 02:16:36 02:19:34 17° 62° (ENE) 02:22:33 436.000
RS-15 17 Oct 02:17:55 02:30:16 85° 303° (WNW) 02:42:39 29.354- 29.394
UKube-1 17 Oct 02:24:38 02:28:52 57° 259° (W) 02:33:07 .
EO-79 17 Oct 02:36:09 02:37:15 11° 299° (WNW) 02:38:21 145.935-145.965
AO-7 17 Oct 03:21:51 03:28:12 24° 93° (E) 03:34:29 .
M-CUBED/EXP-1 PRIME 17 Oct 03:29:08 03:32:11 29° 294° (WNW) 03:35:22 437.505
ITUPSAT 1 17 Oct 03:33:47 03:38:36 90° 276° (W) 03:43:27 437.325
MOZHAYETS 4 17 Oct 03:41:53 03:46:30 68° 258° (WSW) 03:51:09
CUBESAT XI-V 17 Oct 03:43:25 03:47:21 28° 68° (ENE) 03:51:16 437.345
BEESAT 17 Oct 03:52:10 03:56:51 58° 259° (W) 04:01:36 436.000
Gurwin Techsat 1B 17 Oct 03:52:28 03:57:13 34° 293° (WNW) 04:01:56 435.225
Oscar 19 17 Oct 03:52:46 03:56:44 23° 296° (WNW) 04:00:41 437.125/150
KKS-1 17 Oct 04:03:09 04:05:25 14° 62° (ENE) 04:07:42 437.445
ITAMSAT 1 17 Oct 04:16:03 04:20:58 40° 98° (E) 04:25:53 435.822/435.867
NO-84 17 Oct 04:18:51 04:22:51 38° 131° (SE) 04:26:47 435.350 FM
RS-15 17 Oct 04:34:02 04:44:48 33° 330° (NNW) 04:55:28 29.354- 29.394
STARS 17 Oct 04:46:29 04:49:11 16° 63° (ENE) 04:51:52 437.465
DOVE 4 17 Oct 05:00:06 05:02:54 15° 91° (E) 05:05:44 437.250
AO-7 17 Oct 05:13:22 05:21:39 75° 292° (WNW) 05:29:55 .
CUBESAT XI-V 17 Oct 05:20:34 05:24:37 29° 264° (W) 05:28:40 437.345
KKS-1 17 Oct 05:37:05 05:41:27 60° 259° (WSW) 05:45:52 437.445
ITAMSAT 1 17 Oct 05:55:56 06:00:13 26° 295° (WNW) 06:04:29 435.822/435.867
NO-84 17 Oct 05:56:19 06:00:17 36° 327° (NNW) 06:04:09 435.350 FM
CUTE-I 17 Oct 05:59:52 06:01:52 12° 89° (E) 06:03:52 437.470
XW-2D 17 Oct 06:01:23 06:02:24 11° 90° (E) 06:03:24 145.860 - 145.880
XW-2B 17 Oct 06:13:36 06:15:51 15° 93° (E) 06:18:03 145.730 - 145.750
NUDT-PHONESAT 17 Oct 06:17:28 06:18:39 11° 91° (E) 06:19:49 437.300
STRAND 1 17 Oct 06:17:45 06:20:49 16° 61° (ENE) 06:23:54 437.568
STARS 17 Oct 06:20:51 06:25:05 50° 260° (W) 06:29:23 437.465
XW-2C 17 Oct 06:35:45 06:39:02 28° 97° (E) 06:42:18 145.795 - 145.815
DOVE 4 17 Oct 06:36:02 06:40:53 64° 285° (WNW) 06:45:57 437.250
SO-50 17 Oct 06:52:47 06:54:45 13° 108° (ESE) 06:56:44 436.795
RS-15 17 Oct 06:53:29 07:02:36 23° 5° (N) 07:11:28 29.354- 29.394
O/OREOS (USA 219) 17 Oct 07:07:14 07:11:37 41° 62° (ENE) 07:15:57 437.305
AO-7 17 Oct 07:08:00 07:13:04 18° 312° (NW) 07:18:08 .
HO-68 17 Oct 07:08:47 07:14:28 25° 93° (E) 07:20:07 435.675
LilacSat-2 17 Oct 07:20:53 07:24:39 68° 283° (WNW) 07:28:22 437.200
XW-2F 17 Oct 07:23:47 07:27:30 72° 285° (WNW) 07:31:12 145.980 - 146.000
KAITUO 1B 17 Oct 07:28:34 07:32:15 81° 283° (WNW) 07:35:55 145.475/437.950
XW-2D 17 Oct 07:33:13 07:36:51 48° 286° (WNW) 07:40:27 145.860 - 145.880
CUTE 1.7 + AOD 2 17 Oct 07:36:05 07:39:49 31° 96° (E) 07:43:33 437.475
NO-84 17 Oct 07:36:28 07:38:40 14° 347° (NNW) 07:40:48 435.350 FM
CUTE-I 17 Oct 07:37:08 07:42:32 84° 285° (WNW) 07:47:55 437.470
XW-2B 17 Oct 07:46:42 07:50:08 34° 288° (WNW) 07:53:32 145.730 - 145.750
NUDT-PHONESAT 17 Oct 07:49:14 07:52:44 44° 287° (WNW) 07:56:13 437.300
SEEDS 17 Oct 07:50:40 07:54:15 27° 96° (E) 07:57:48 437.485
STRAND 1 17 Oct 07:54:19 07:59:25 67° 258° (WSW) 08:04:34 437.568
CUBEBUG 2 17 Oct 07:57:35 08:01:49 33° 95° (E) 08:05:55 437.445
PCSat 17 Oct 07:58:27 07:59:49 11° 101° (ESE) 08:01:12 145.827
XW-2C 17 Oct 08:10:21 08:13:01 19° 292° (WNW) 08:15:40 145.795 - 145.815
FO-29 17 Oct 08:10:36 08:14:54 27° 64° (ENE) 08:19:25 435.910
AO-73 17 Oct 08:11:56 08:13:25 11° 89° (E) 08:14:53 145.935
AAUSAT CUBESAT 2 17 Oct 08:25:53 08:29:31 29° 96° (E) 08:33:08 437.432
ZACube-1 17 Oct 08:30:04 08:33:28 21° 93° (E) 08:36:47 437.345
SO-50 17 Oct 08:30:10 08:34:37 68° 304° (NW) 08:39:07 436.795
UNISAT 6 17 Oct 08:36:03 08:37:29 11° 60° (ENE) 08:38:55 437.425
UWE-3 17 Oct 08:43:20 08:47:51 58° 100° (E) 08:52:12 435.000/436.395/437.385
XW-2A 17 Oct 08:47:02 08:50:24 81° 99° (E) 08:53:43 145.665 - 145.685
O/OREOS (USA 219) 17 Oct 08:47:24 08:50:42 20° 259° (W) 08:53:58 437.305
TIGRISAT 17 Oct 08:50:37 08:53:12 15° 62° (ENE) 08:55:47 435.000
HO-68 17 Oct 08:55:32 09:02:39 64° 291° (WNW) 09:09:44 435.675
RS-15 17 Oct 09:08:26 09:19:41 41° 38° (NE) 09:30:19 29.354- 29.394
CUTE 1.7 + AOD 2 17 Oct 09:12:14 09:15:29 22° 292° (WNW) 09:18:43 437.475
Oscar 11 17 Oct 09:12:55 09:16:57 37° 98° (E) 09:20:55 .
PRISM 17 Oct 09:13:48 09:14:25 10° 61° (ENE) 09:15:02 437.425
NO-84 17 Oct 09:15:50 09:17:31 12° 8° (N) 09:19:08 435.350 FM
CUTE-I 17 Oct 09:19:47 09:21:43 12° 303° (WNW) 09:23:39 437.470
SEEDS 17 Oct 09:26:26 09:29:48 24° 292° (WNW) 09:33:10 437.485
CUBEBUG 2 17 Oct 09:34:25 09:38:15 25° 293° (WNW) 09:42:00 437.445
PCSat 17 Oct 09:36:55 09:42:20 86° 115° (ESE) 09:47:48 145.827
AO-73 17 Oct 09:45:43 09:50:05 62° 286° (WNW) 09:54:18 145.935
FO-29 17 Oct 09:55:07 09:59:52 36° 264° (W) 10:04:51 435.910
YUBILEINY 17 Oct 09:57:37 10:06:06 61° 91° (E) 10:14:38 435.215
Tancredo 1 17 Oct 10:00:32 10:02:26 85° 145° (SE) 10:04:20 437.200
AAUSAT CUBESAT 2 17 Oct 10:01:36 10:04:47 22° 292° (WNW) 10:07:59 437.432
ZACube-1 17 Oct 10:05:49 10:09:48 34° 290° (WNW) 10:13:41 437.345
UNISAT 6 17 Oct 10:08:50 10:13:27 84° 256° (WSW) 10:18:10 437.425
SO-50 17 Oct 10:14:16 10:15:56 12° 325° (NW) 10:17:36 436.795
UWE-3 17 Oct 10:21:14 10:23:45 15° 297° (WNW) 10:26:15 435.000/436.395/437.385
TIGRISAT 17 Oct 10:24:45 10:29:19 62° 259° (W) 10:33:59 435.000
DELFI C3 17 Oct 10:27:20 10:31:14 56° 100° (E) 10:35:08 145.870
AIST 2D 17 Oct 10:27:22 10:29:09 13° 67° (ENE) 10:30:55 435.315
EO-88 17 Oct 10:31:12 10:34:26 30° 97° (E) 10:37:38 145.990 - 145.960
Max Valier Satellite 17 Oct 10:32:30 10:36:02 44° 99° (E) 10:39:33 145.860
nSIGHT-1 17 Oct 10:35:01 10:36:52 15° 131° (SE) 10:38:43 .
QB50P2 17 Oct 10:41:26 10:42:30 11° 61° (ENE) 10:43:33 145.880/145.840
PRISM 17 Oct 10:45:04 10:49:05 70° 258° (WSW) 10:53:09 437.425
HO-68 17 Oct 10:46:04 10:48:59 13° 310° (NW) 10:51:54 435.675
NANOSAT C BR1 17 Oct 10:48:54 10:49:29 10° 61° (ENE) 10:50:05 145.865
Oscar 11 17 Oct 10:49:43 10:52:47 20° 294° (WNW) 10:55:52 .
NO-84 17 Oct 10:52:40 10:56:01 28° 29° (NNE) 10:59:07 435.350 FM
ISS 17 Oct 10:58:01 11:00:36 22° 134° (SE) 11:03:11 437.550
DUCHIFAT 1 17 Oct 11:00:28 11:02:12 12° 62° (ENE) 11:03:56 145.980
RS-15 17 Oct 11:21:15 11:33:02 70° 244° (WSW) 11:44:09 29.354- 29.394
PCSat 17 Oct 11:22:54 11:26:28 17° 318° (NW) 11:30:01 145.827
LO-87 17 Oct 11:32:35 11:35:25 21° 95° (E) 11:38:14 145.935 - 145.965
EO-79 17 Oct 11:49:47 11:53:55 53° 73° (ENE) 11:58:06 145.935-145.965
POLYITAN 1 17 Oct 11:53:26 11:57:37 58° 74° (ENE) 12:01:51 437.675
YUBILEINY 17 Oct 11:56:08 12:03:26 30° 292° (WNW) 12:10:50 435.215
AIST 2D 17 Oct 11:58:43 12:02:00 36° 262° (W) 12:05:17 435.315
DELFI C3 17 Oct 12:04:00 12:05:30 12° 296° (WNW) 12:07:00 145.870
EO-88 17 Oct 12:05:27 12:07:50 17° 293° (WNW) 12:10:13 145.990 - 145.960
Max Valier Satellite 17 Oct 12:07:53 12:09:27 12° 295° (WNW) 12:11:00 145.860
nSIGHT-1 17 Oct 12:09:38 12:12:48 61° 327° (NNW) 12:15:58 .
QB50P2 17 Oct 12:13:23 12:17:38 75° 257° (WSW) 12:21:56 145.880/145.840
ESTCUBE 1 17 Oct 12:17:34 12:21:57 51° 100° (E) 12:26:18 437.505/2401.250
NANOSAT C BR1 17 Oct 12:20:18 12:24:32 78° 259° (W) 12:28:49 145.865
NO-84 17 Oct 12:30:04 12:33:27 37° 229° (SW) 12:36:33 435.350 FM
DUCHIFAT 1 17 Oct 12:33:07 12:37:18 64° 259° (W) 12:41:32 145.980
ISS 17 Oct 12:33:46 12:36:54 44° 331° (NNW) 12:40:02 437.550
M-CUBED/EXP-1 PRIME 17 Oct 12:41:25 12:44:04 21° 64° (ENE) 12:46:38 437.505
BUGSAT 1 17 Oct 12:54:44 12:58:48 56° 74° (ENE) 13:02:57 437.445
LO-87 17 Oct 13:05:49 13:08:44 23° 291° (WNW) 13:11:40 145.935 - 145.965
BEESAT 3 17 Oct 13:15:04 13:19:00 59° 119° (ESE) 13:22:58 437.485
EO-79 17 Oct 13:27:56 13:29:59 13° 269° (W) 13:32:02 145.935-145.965
Oscar 19 17 Oct 13:29:30 13:34:37 66° 74° (ENE) 13:39:45 437.125/150
POLYITAN 1 17 Oct 13:32:04 13:33:45 12° 270° (W) 13:35:28 437.675
Gurwin Techsat 1B 17 Oct 13:33:34 13:38:39 50° 71° (ENE) 13:43:48 435.225
RS-15 17 Oct 13:37:32 13:42:58 15° 265° (W) 13:48:19 29.354- 29.394
SPROUT 17 Oct 13:40:26 13:44:45 79° 284° (WNW) 13:49:02 437.525
DX 1 17 Oct 13:41:07 13:43:55 16° 93° (E) 13:46:42 434.975-435.025
nSIGHT-1 17 Oct 13:47:24 13:49:35 17° 346° (NNW) 13:51:47 .
AO-85 17 Oct 13:53:33 13:56:55 29° 115° (ESE) 14:00:22 145.980
ESTCUBE 1 17 Oct 13:55:35 13:58:19 16° 296° (WNW) 14:01:04 437.505/2401.250
VELOX 1 17 Oct 13:58:49 14:03:15 76° 285° (WNW) 14:07:41 145.980
UKube-1 17 Oct 14:11:54 14:15:19 22° 95° (E) 14:18:42 .
ISS 17 Oct 14:11:56 14:14:00 16° 350° (N) 14:16:05 437.550
M-CUBED/EXP-1 PRIME 17 Oct 14:15:45 14:18:26 21° 258° (WSW) 14:21:03 437.505
AO-7 17 Oct 14:20:51 14:28:06 35° 58° (ENE) 14:35:22 .
BEESAT 2 17 Oct 14:27:28 14:31:27 76° 302° (WNW) 14:35:32 435.950
BUGSAT 1 17 Oct 14:32:49 14:34:30 12° 270° (W) 14:36:11 437.445
50 SAT 17 Oct 14:37:06 14:40:25 78° 284° (WNW) 14:43:42 437.505
BEESAT 3 17 Oct 14:54:20 14:56:54 16° 317° (NW) 14:59:29 437.485
Oscar 19 17 Oct 15:11:32 15:14:23 15° 269° (W) 15:17:14 437.125/150
Gurwin Techsat 1B 17 Oct 15:14:58 15:18:52 21° 267° (W) 15:22:47 435.225
DX 1 17 Oct 15:16:08 15:20:18 44° 289° (WNW) 15:24:27 434.975-435.025
SO-50 17 Oct 15:21:47 15:24:44 17° 40° (NE) 15:27:43 436.795
nSIGHT-1 17 Oct 15:25:03 15:26:50 14° 6° (N) 15:28:37 .
ITAMSAT 1 17 Oct 15:33:56 15:39:02 63° 72° (ENE) 15:44:11 435.822/435.867
AO-85 17 Oct 15:34:02 15:37:17 25° 313° (NW) 15:40:37 145.980
ITUPSAT 1 17 Oct 15:34:50 15:38:36 23° 94° (E) 15:42:21 437.325
MOZHAYETS 4 17 Oct 15:37:10 15:41:04 27° 95° (E) 15:44:57
UKube-1 17 Oct 15:47:30 15:51:21 32° 291° (WNW) 15:55:11 .
ISS 17 Oct 15:49:24 15:51:28 16° 10° (N) 15:53:33 437.550
BEESAT 17 Oct 15:52:13 15:56:35 34° 97° (E) 16:00:55 436.000
DOVE 4 17 Oct 16:07:09 16:08:52 12° 62° (ENE) 16:10:35 437.250
BEESAT 2 17 Oct 16:08:48 16:09:54 11° 322° (NW) 16:11:00 435.950
Tancredo 1 17 Oct 16:10:08 16:11:58 67° 217° (SW) 16:13:47 437.200
AO-7 17 Oct 16:12:26 16:20:31 56° 257° (WSW) 16:28:39 .
